Location: Bay Shore Mobile Home Park
(38.5762°N, 75.0841°W)
Time: 19:12:13
(UTC+00:00)

Cosmos 1190 Rocket - Pass Details

Date: 15 November 2025
Orbit: 752 x 775 km, 74.1° (Epoch: 08 December)

Event Time Altitude Azimuth Distance (km) Brightness Sun altitude
Rises 23:04:19 0° 187° (S) 3,232 7.5 -15.2°
Reaches altitude 10° 23:06:42 10° 184° (S) 2,311 6.7 -15.7°
Maximum altitude 23:11:53 62° 105° (ESE) 869 4.0 -16.7°
Enters shadow 23:16:28 13° 27° (NNE) 2,093 5.9 -17.5°
